KJ6LNH-1 Weather Reports


time (UTC)temp
C
wind
direction
speed
KPH
gust
KPH
rain 1hr
cm
rain 24hr
cm
rain mn
cm
humidity
%
barometer
mb
20260506201507 23 240 1.6 3.2 0.00 0.00 0.00 45 1018.4
20260506201007 23 264 0.0 1.6 0.00 0.00 0.00 48 1018.4
20260506200007 23 224 1.6 4.8 0.00 0.00 0.00 48 1018.6
20260506195507 23 227 3.2 8.0 0.00 0.00 0.00 47 1018.7
20260506195007 23 240 1.6 8.0 0.00 0.00 0.00 48 1018.7
20260506194510 23 226 1.6 4.8 0.00 0.00 0.00 49 1018.7
20260506193507 23 186 3.2 8.0 0.00 0.00 0.00 49 1018.8
20260506192508 23 227 1.6 6.4 0.00 0.00 0.00 51 1018.9
20260506192216 23 211 1.6 4.8 0.00 0.00 0.00 52 1018.9
20260506192008 23 211 1.6 4.8 0.00 0.00 0.00 52 1018.9
20260506191507 23 225 1.6 4.8 0.00 0.00 0.00 50 1019.0
20260506191007 23 266 0.0 3.2 0.00 0.00 0.00 52 1019.0
20260506190007 23 227 1.6 4.8 0.00 0.00 0.00 53 1019.0
20260506185507 23 205 1.6 6.4 0.00 0.00 0.00 53 1019.0
20260506185007 23 208 1.6 6.4 0.00 0.00 0.00 54 1019.0
20260506184008 22 261 0.0 3.2 0.00 0.00 0.00 55 1019.1
20260506183508 22 227 1.6 4.8 0.00 0.00 0.00 55 1019.1
20260506183008 21 187 1.6 6.4 0.00 0.00 0.00 57 1019.1
20260506182511 22 193 3.2 6.4 0.00 0.00 0.00 54 1019.2
20260506181507 22 242 0.0 3.2 0.00 0.00 0.00 56 1019.2
20260506181007 22 199 3.2 6.4 0.00 0.00 0.00 54 1019.2
20260506175507 22 238 1.6 4.8 0.00 0.00 0.00 55 1019.2
20260506175007 21 221 0.0 4.8 0.00 0.00 0.00 58 1019.2
20260506174509 20 241 0.0 1.6 0.00 0.00 0.00 59 1019.2
20260506174008 21 209 1.6 4.8 0.00 0.00 0.00 57 1019.3
20260506173507 20 228 1.6 4.8 0.00 0.00 0.00 61 1019.3
20260506173007 20 263 0.0 1.6 0.00 0.00 0.00 60 1019.3
20260506172507 18 277 0.0 0.0 0.00 0.00 0.00 63 1019.3
20260506171508 19 256 1.6 6.4 0.00 0.00 0.00 63 1019.3
20260506171007 19 195 1.6 6.4 0.00 0.00 0.00 63 1019.3
20260506170006 17 0 0.0 0.0 0.00 0.05 0.00 70 1019.3
20260506165507 17 0 0.0 0.0 0.00 0.05 0.00 70 1019.3
20260506165006 17 0 0.0 0.0 0.00 0.05 0.00 70 1019.3
20260506164507 16 0 6.4 14.5 0.00 0.05 0.00 74 1019.3
20260506164007 15 0 14.5 14.5 0.00 0.05 0.00 78 1019.3
20260506163507 15 0 14.5 14.5 0.00 0.05 0.00 78 1019.3
20260506163007 15 0 14.5 14.5 0.00 0.05 0.00 78 1019.3
20260506162507 15 0 14.5 14.5 0.00 0.05 0.00 78 1019.3
20260506162007 15 0 14.5 14.5 0.00 0.05 0.00 78 1019.3
20260506161506 15 0 14.5 14.5 0.00 0.05 0.00 78 1019.3
20260506161007 15 0 14.5 14.5 0.00 0.05 0.00 78 1019.3
20260506160007 15 197 8.0 14.5 0.00 0.05 0.00 78 1019.3
20260506155008 13 282 3.2 6.4 0.00 0.05 0.00 80 1019.4
20260506154507 13 197 4.8 6.4 0.00 0.10 0.00 81 1019.4
20260506154007 13 204 6.4 14.5 0.00 0.10 0.00 83 1019.4
20260506153508 13 217 8.0 11.3 0.00 0.10 0.00 83 1019.4
20260506153007 13 215 4.8 6.4 0.00 0.10 0.00 84 1019.4
20260506152508 13 228 8.0 14.5 0.00 0.13 0.00 84 1019.4
20260506152007 13 241 8.0 14.5 0.00 0.13 0.00 84 1019.4
20260506151525 13 208 4.8 6.4 0.00 0.13 0.00 85 1019.4
20260506151007 12 234 6.4 9.7 0.00 0.13 0.00 85 1019.3
20260506150007 12 193 6.4 14.5 0.00 0.13 0.00 86 1019.3
20260506145507 12 207 8.0 14.5 0.00 0.13 0.00 87 1019.2
20260506145007 12 238 8.0 14.5 0.00 0.13 0.00 87 1019.2
20260506144508 12 213 11.3 14.5 0.00 0.13 0.00 87 1019.2
20260506143507 12 232 9.7 14.5 0.00 0.13 0.00 87 1019.1
20260506143007 12 287 8.0 14.5 0.00 0.13 0.00 87 1019.1
20260506142508 12 202 8.0 14.5 0.00 0.13 0.00 88 1019.0
20260506142007 12 209 8.0 14.5 0.00 0.13 0.00 88 1018.9
20260506141507 12 189 9.7 14.5 0.00 0.13 0.00 88 1018.9
20260506141007 12 191 11.3 14.5 0.00 0.13 0.00 88 1018.8
20260506140508 12 225 8.0 14.5 0.00 0.13 0.00 88 1018.7
20260506140008 11 240 12.9 14.5 0.00 0.13 0.00 88 1018.6
20260506135507 11 0 14.5 14.5 0.00 0.13 0.00 88 1018.6
20260506135007 11 239 12.9 14.5 0.00 0.13 0.00 88 1018.6
20260506134507 11 236 9.7 14.5 0.00 0.13 0.00 88 1018.6
20260506134007 11 259 11.3 14.5 0.00 0.13 0.00 88 1018.6
20260506133508 11 242 12.9 14.5 0.00 0.13 0.00 88 1018.5
20260506133007 11 257 11.3 14.5 0.00 0.13 0.00 88 1018.5
20260506132508 11 251 11.3 14.5 0.00 0.13 0.00 88 1018.5
20260506131507 11 197 12.9 14.5 0.00 0.13 0.00 88 1018.4
20260506131025 11 194 9.7 14.5 0.00 0.13 0.00 88 1018.4
20260506130509 11 220 11.3 14.5 0.00 0.13 0.00 88 1018.3
20260506130007 11 231 9.7 14.5 0.00 0.13 0.00 88 1018.3
20260506125507 11 244 11.3 14.5 0.00 0.13 0.00 88 1018.3
20260506125008 11 233 9.7 14.5 0.00 0.13 0.00 88 1018.3
20260506124507 11 251 9.7 14.5 0.00 0.13 0.00 88 1018.2
20260506124007 11 244 11.3 14.5 0.00 0.13 0.00 88 1018.2
20260506123507 11 218 11.3 14.5 0.00 0.13 0.00 88 1018.2
20260506123008 11 293 9.7 14.5 0.00 0.13 0.00 88 1018.2
20260506122507 11 263 9.7 14.5 0.00 0.13 0.00 88 1018.2
20260506122007 11 240 11.3 14.5 0.00 0.13 0.00 88 1018.2
20260506121507 11 245 11.3 14.5 0.00 0.13 0.00 88 1018.2
20260506121008 11 232 9.7 14.5 0.00 0.13 0.00 88 1018.2
20260506120508 11 286 9.7 14.5 0.00 0.13 0.00 88 1018.2
20260506120008 11 227 11.3 14.5 0.00 0.13 0.00 88 1018.1
20260506115510 11 223 8.0 14.5 0.00 0.13 0.00 88 1018.1
20260506115007 11 218 9.7 14.5 0.00 0.13 0.00 88 1018.0
20260506114508 11 229 9.7 14.5 0.00 0.13 0.00 88 1018.0
20260506114007 11 202 11.3 14.5 0.00 0.13 0.00 88 1018.0
20260506113508 11 281 9.7 14.5 0.00 0.13 0.00 88 1017.9
20260506113008 11 280 8.0 14.5 0.00 0.13 0.00 88 1017.9
20260506112507 11 260 6.4 11.3 0.00 0.13 0.00 88 1017.8
20260506112007 11 246 8.0 14.5 0.00 0.13 0.00 88 1017.8
20260506111507 11 209 6.4 14.5 0.00 0.13 0.00 88 1017.8
20260506110509 11 240 8.0 14.5 0.00 0.13 0.00 88 1017.7
20260506110007 11 229 6.4 8.0 0.00 0.13 0.00 88 1017.7
20260506105507 11 270 6.4 6.4 0.00 0.13 0.00 88 1017.7
20260506105007 11 239 6.4 14.5 0.00 0.13 0.00 88 1017.7
20260506104507 11 235 6.4 14.5 0.00 0.13 0.00 88 1017.7
20260506104007 11 200 8.0 14.5 0.00 0.13 0.00 88 1017.7
20260506103509 11 229 9.7 14.5 0.00 0.13 0.00 88 1017.7
20260506103007 11 209 8.0 14.5 0.00 0.13 0.00 88 1017.7
20260506102507 11 288 6.4 14.5 0.00 0.13 0.00 88 1017.6
20260506102007 11 217 6.4 12.9 0.00 0.13 0.00 88 1017.6
20260506101508 11 231 8.0 14.5 0.00 0.13 0.00 88 1017.6
20260506100509 11 238 8.0 14.5 0.00 0.13 0.00 88 1017.5
20260506100008 11 237 8.0 14.5 0.00 0.13 0.00 89 1017.5
20260506095508 11 224 4.8 12.9 0.00 0.13 0.00 89 1017.6
20260506095008 11 267 3.2 6.4 0.00 0.13 0.00 89 1017.6
20260506094507 11 228 8.0 14.5 0.00 0.13 0.00 89 1017.5
20260506094007 11 245 6.4 14.5 0.00 0.13 0.00 89 1017.5
20260506093507 11 235 6.4 9.7 0.00 0.13 0.00 89 1017.4
20260506093008 11 262 4.8 6.4 0.00 0.13 0.00 89 1017.4
20260506092507 11 235 6.4 14.5 0.00 0.13 0.00 89 1017.5
20260506092007 11 250 6.4 14.5 0.00 0.13 0.00 89 1017.5
20260506091507 11 256 4.8 11.3 0.00 0.13 0.00 89 1017.5
20260506091009 11 220 8.0 14.5 0.00 0.13 0.00 89 1017.5
20260506090510 11 242 6.4 14.5 0.00 0.13 0.00 89 1017.5
20260506090008 11 240 4.8 6.4 0.00 0.13 0.00 89 1017.5
20260506085508 11 251 4.8 14.5 0.00 0.13 0.00 89 1017.5
20260506085008 11 243 4.8 6.4 0.00 0.15 0.00 89 1017.6
20260506084507 11 212 4.8 6.4 0.00 0.18 0.00 88 1017.6
20260506084008 11 215 4.8 6.4 0.00 0.18 0.00 88 1017.6
20260506083508 11 243 6.4 14.5 0.00 0.20 0.00 88 1017.5
20260506083007 11 243 6.4 14.5 0.00 0.23 0.00 88 1017.6
20260506082507 11 218 6.4 12.9 0.00 0.23 0.00 88 1017.5
20260506082008 11 219 4.8 6.4 0.00 0.23 0.00 88 1017.5
20260506081508 11 248 6.4 14.5 0.00 0.23 0.00 88 1017.4
20260506080507 11 269 8.0 14.5 0.00 0.23 0.00 88 1017.5
20260506073508 11 233 11.3 14.5 0.00 0.43 0.00 90 1017.1
20260506073007 11 231 12.9 14.5 0.00 0.43 0.00 90 1017.2
20260506072508 11 255 8.0 14.5 0.00 0.43 0.00 90 1017.1
20260506072007 11 223 12.9 14.5 0.00 0.46 0.00 90 1017.1
20260506071507 11 242 9.7 14.5 0.00 0.48 0.00 90 1017.0
20260506062007 11 203 8.0 14.5 0.00 0.66 0.51 88 1016.7
20260506061507 11 271 6.4 9.7 0.00 0.66 0.51 87 1016.7
20260506061008 11 259 6.4 9.7 0.00 0.66 0.51 87 1016.6
20260506051007 12 248 9.7 14.5 0.00 0.79 0.51 85 1016.2
20260506045007 12 195 6.4 6.4 0.00 0.86 0.51 83 1016.1
20260506044507 12 221 4.8 6.4 0.00 0.86 0.51 83 1016.1
20260506044008 12 201 6.4 12.9 0.00 0.89 0.51 82 1016.0
20260506043507 12 212 6.4 14.5 0.00 0.91 0.51 82 1015.9
20260506043007 12 212 4.8 6.4 0.00 0.99 0.51 82 1015.9
20260506042507 12 265 4.8 6.4 0.00 1.02 0.51 81 1015.8
20260506042007 13 253 4.8 9.7 0.00 1.04 0.51 81 1015.7
20260506041508 13 200 4.8 6.4 0.00 1.07 0.51 81 1015.7
20260506041009 13 225 4.8 9.7 0.00 1.09 0.51 81 1015.6
20260506040008 13 223 6.4 9.7 0.00 1.14 0.51 80 1015.5
20260506035507 13 247 6.4 14.5 0.00 1.14 0.51 80 1015.5
20260506034508 13 236 9.7 14.5 0.00 1.14 0.51 79 1015.4
20260506034017 13 212 6.4 12.9 0.00 1.14 0.51 79 1015.4
20260506033508 13 260 6.4 14.5 0.00 1.14 0.51 78 1015.3
20260506033007 13 272 6.4 14.5 0.00 1.14 0.51 78 1015.2
20260506032507 13 240 4.8 14.5 0.00 1.14 0.51 78 1015.1
20260506032007 13 291 4.8 8.0 0.00 1.14 0.51 78 1014.9
20260506031009 13 191 4.8 6.4 0.00 1.14 0.51 77 1014.8
20260506030010 13 194 4.8 6.4 0.00 1.14 0.51 76 1014.7
20260506025507 13 235 8.0 12.9 0.00 1.14 0.51 76 1014.7
20260506025007 14 240 3.2 6.4 0.00 1.14 0.51 76 1014.7
20260506024508 14 234 8.0 14.5 0.00 1.14 0.51 76 1014.6
20260506023508 14 236 8.0 14.5 0.00 1.14 0.51 76 1014.5
20260506023008 14 212 9.7 14.5 0.00 1.14 0.51 75 1014.5
20260506022507 14 259 6.4 14.5 0.00 1.14 0.51 75 1014.5
20260506021524 15 265 4.8 8.0 0.00 1.14 0.51 75 1014.4
20260506020008 15 221 9.7 14.5 0.00 1.14 0.51 74 1014.3
20260506014507 15 239 11.3 14.5 0.00 1.14 0.51 74 1014.1
20260506014007 15 211 8.0 14.5 0.00 1.14 0.51 75 1014.0
20260506013508 15 224 9.7 14.5 0.00 1.14 0.51 74 1014.0
20260506012507 16 234 8.0 14.5 0.00 1.14 0.51 74 1014.0
20260506012008 16 193 9.7 14.5 0.00 1.14 0.51 74 1014.0
20260506010508 16 252 11.3 14.5 0.00 1.14 0.51 73 1014.0
20260506010007 16 240 6.4 12.9 0.00 1.14 0.51 73 1013.9
20260506005007 16 194 8.0 14.5 0.00 1.14 0.51 73 1013.9
20260506003007 16 218 3.2 8.0 0.00 1.14 0.51 72 1013.8
20260506002508 16 203 6.4 14.5 0.00 1.14 0.51 71 1013.8
20260506002007 17 270 4.8 9.7 0.00 1.14 0.51 70 1013.7
20260506001507 17 247 4.8 12.9 0.00 1.14 0.51 71 1013.7
20260506001007 17 230 1.6 8.0 0.00 1.14 0.51 71 1013.7
20260506000008 17 249 3.2 9.7 0.00 1.14 0.51 69 1013.8
20260505235508 17 196 1.6 8.0 0.00 1.14 0.51 69 1013.8
20260505234507 17 223 3.2 8.0 0.00 1.14 0.51 69 1013.8
20260505234007 17 283 4.8 8.0 0.00 1.14 0.51 69 1013.8
20260505233507 17 255 3.2 9.7 0.00 1.14 0.51 72 1013.8
20260505233007 16 201 3.2 12.9 0.00 1.14 0.51 72 1013.8
20260505232508 16 239 1.6 8.0 0.00 1.14 0.51 72 1013.9
20260505232008 16 196 3.2 8.0 0.00 1.14 0.51 72 1013.9
20260505231507 16 241 3.2 12.9 0.00 1.14 0.51 71 1013.9
20260505231007 17 195 1.6 6.4 0.00 1.14 0.51 72 1013.9
20260505230007 16 244 3.2 8.0 0.00 1.14 0.51 72 1013.9
20260505225508 16 235 3.2 9.7 0.00 1.14 0.51 73 1013.9
20260505225008 16 261 1.6 8.0 0.00 1.14 0.51 72 1013.9
20260505224007 17 235 4.8 9.7 0.00 1.14 0.51 72 1014.0
20260505223507 17 226 3.2 9.7 0.00 1.14 0.51 72 1014.0
20260505223011 17 238 1.6 6.4 0.00 1.14 0.51 72 1014.0
20260505222508 17 226 1.6 6.4 0.00 1.14 0.51 71 1014.0
20260505222007 17 259 1.6 8.0 0.00 1.14 0.51 71 1014.0
20260505221007 17 225 1.6 8.0 0.00 1.14 0.51 71 1014.1
20260505220509 17 189 1.6 6.4 0.00 1.14 0.51 70 1014.1
20260505215508 17 226 1.6 8.0 0.00 1.14 0.51 71 1014.1
20260505213508 16 241 4.8 12.9 0.00 1.14 0.51 75 1014.3
20260505213007 16 220 6.4 11.3 0.00 1.14 0.51 76 1014.3
20260505212507 16 216 4.8 6.4 0.00 1.14 0.51 76 1014.4
20260505211508 16 216 4.8 6.4 0.00 1.14 0.51 75 1014.4
20260505210007 16 208 1.6 6.4 0.00 1.14 0.51 71 1014.3
20260505205007 17 249 1.6 6.4 0.00 1.14 0.51 70 1014.4
20260505202507 16 221 3.2 8.0 0.00 1.14 0.51 71 1014.5
20260505202008 16 208 3.2 8.0 0.00 1.14 0.51 71 1014.5